Terminal Aerodrome Forecast
Issued by NWS

Home | Current Version | Previous Version | Text Only | Print | Product List | Glossary On
Versions: 1 2 3 4 5 6 7 8 9 10 11 12
000
FTUS45 KREV 042325
TAFTVL
TAF
KTVL 042325Z 0500/0524 19010KT P6SM VCSH SCT030 OVC050
     FM051200 19005KT P6SM -SHRA VCTS BKN035CB OVC050
     FM051800 19006KT P6SM TSRA BKN030CB=

USA.gov is the U.S. government's official web portal to all federal, state and local government web resources and services.